Date String (YYYY-MM-DD hh:mm:ss) UTC,Instrument flags,Ambient pressure (hPa),Sample flow (lpm),Bypass flow (lpm),Sample temperature (°C),Ambient temperature (°C),ASC tube jacket temperature (°C),LED temperature (°C),Box temperature (°C),Sample RH (%),Span deviation,Mass concentration (μg/m³),Mass concentration (μg/m³),Mass concentration (μg/m³)
DateTimeUTC,F1_M11,P_M11,Q1_M11,Q2_M11,T1_M11,T2_M11,T3_M11,T4_M11,T5_M11,U1_M11,ZSPAN_M11,X0_M11,X2_M11,X1_M11
2023-05-19 07:00:00,,0835.9,4.99,0.00,28.9,27.1,00.0,37.3,30.5,26.5,0002.3,0016.68,0011.66,0011.07
2023-05-19 07:01:00,,0835.9,4.99,0.00,28.9,27.1,00.0,37.3,30.4,26.4,0002.2,0018.65,0013.22,0012.58
2023-05-19 07:02:00,,0835.9,5.00,0.00,28.9,27.1,00.0,37.3,30.4,26.3,0002.4,0020.41,0014.62,0013.94
2023-05-19 07:03:00,,0835.9,5.01,0.00,28.9,27.1,00.0,37.3,30.4,26.3,0002.6,0021.92,0015.78,0015.01
2023-05-19 07:04:00,,0835.9,5.01,0.00,28.9,27.1,00.0,37.3,30.4,26.4,0002.5,0023.26,0016.82,0016.02
2023-05-19 07:05:00,,0836.0,4.99,0.00,28.8,27.0,00.0,37.3,30.4,26.4,0002.5,0024.78,0017.97,0017.12
2023-05-19 07:06:00,,0836.0,4.99,0.00,28.8,27.0,00.0,37.3,30.4,26.5,0002.5,0025.88,0019.23,0018.30
2023-05-19 07:07:00,,0835.9,5.00,0.00,28.8,27.0,00.0,37.3,30.4,26.7,0002.5,0027.26,0020.29,0019.36
2023-05-19 07:08:00,,0836.0,5.01,0.00,28.8,27.0,00.0,37.2,30.4,26.7,0002.6,0028.00,0020.86,0019.90
2023-05-19 07:09:00,,0836.0,5.00,0.00,28.8,27.0,00.0,37.2,30.3,26.8,0002.7,0027.88,0020.78,0019.85
2023-05-19 07:10:00,,0836.0,5.00,0.00,28.8,27.0,00.0,37.2,30.3,26.8,0002.6,0027.57,0020.46,0019.50
2023-05-19 07:11:00,,0836.0,5.00,0.00,28.8,27.0,00.0,37.2,30.3,26.8,0002.7,0027.24,0020.18,0019.20
2023-05-19 07:12:00,,0836.1,5.00,0.00,28.8,27.0,00.0,37.2,30.3,26.9,0002.6,0027.15,0020.07,0019.06
2023-05-19 07:13:00,,0836.1,5.00,0.00,28.8,27.0,00.0,37.2,30.3,26.9,0002.6,0027.59,0020.27,0019.23
2023-05-19 07:14:00,,0836.1,5.00,0.00,28.7,27.0,00.0,37.2,30.3,26.9,0002.6,0028.12,0020.63,0019.60
2023-05-19 07:15:00,,0836.1,5.00,0.00,28.7,27.0,00.0,37.2,30.3,26.9,0002.5,0028.93,0021.27,0020.19
2023-05-19 07:16:00,,0836.1,4.99,0.00,28.7,27.0,00.0,37.2,30.3,26.9,0002.4,0029.90,0022.01,0020.93
2023-05-19 07:17:00,,0836.1,5.00,0.00,28.7,27.0,00.0,37.2,30.3,26.9,0002.4,0030.85,0022.73,0021.59
2023-05-19 07:18:00,,0836.0,5.00,0.00,28.7,27.0,00.0,37.1,30.3,27.0,0002.4,0031.66,0023.23,0022.06
2023-05-19 07:19:00,,0836.0,5.00,0.00,28.7,27.0,00.0,37.1,30.3,27.0,0002.4,0032.42,0023.75,0022.53
2023-05-19 07:20:00,,0836.0,5.01,0.00,28.7,26.9,00.0,37.1,30.3,26.9,0002.5,0033.29,0024.43,0023.15
2023-05-19 07:21:00,,0835.9,4.99,0.00,28.7,26.9,00.0,37.1,30.3,26.8,0002.7,0034.51,0025.44,0024.12
2023-05-19 07:22:00,,0835.9,4.99,0.00,28.7,26.9,00.0,37.1,30.2,26.8,0002.7,0035.94,0026.62,0025.25
2023-05-19 07:23:00,,0835.9,5.01,0.00,28.7,26.9,00.0,37.1,30.2,26.7,0002.6,0037.49,0027.86,0026.42
2023-05-19 07:24:00,,0835.9,5.00,0.00,28.7,26.9,00.0,37.1,30.2,26.6,0002.8,0039.56,0029.52,0028.03
2023-05-19 07:25:00,,0835.9,5.00,0.00,28.7,26.9,00.0,37.1,30.2,26.3,0002.7,0041.94,0031.55,0029.98
2023-05-19 07:26:00,,0835.9,4.99,0.00,28.7,26.9,00.0,37.1,30.2,26.2,0002.9,0044.90,0033.99,0032.38
2023-05-19 07:27:00,,0835.9,5.00,0.00,28.7,26.9,00.0,37.1,30.2,26.0,0003.2,0048.00,0036.55,0034.78
2023-05-19 07:28:00,,0835.9,5.00,0.00,28.7,26.9,00.0,37.1,30.2,25.7,0003.3,0051.53,0039.51,0037.61
2023-05-19 07:29:00,,0835.9,5.01,0.00,28.7,26.9,00.0,37.1,30.2,25.6,0003.3,0054.98,0042.52,0040.63
2023-05-19 07:30:00,,0835.9,5.01,0.00,28.6,26.9,00.0,37.1,30.2,25.5,0003.3,0058.38,0045.39,0043.44
2023-05-19 07:31:00,,0835.9,4.99,0.00,28.7,26.9,00.0,37.0,30.2,25.3,0003.3,0061.67,0048.19,0046.23
2023-05-19 07:32:00,,0835.9,5.00,0.00,28.7,26.9,00.0,37.0,30.2,25.1,0003.2,0064.87,0050.85,0048.88
2023-05-19 07:33:00,,0835.9,5.00,0.00,28.6,26.8,00.0,37.0,30.2,25.0,0003.3,0068.22,0053.57,0051.46
2023-05-19 07:34:00,,0835.9,5.01,0.00,28.6,26.8,00.0,37.0,30.2,25.2,0003.3,0071.54,0055.80,0053.64
2023-05-19 07:35:00,,0835.9,5.00,0.00,28.6,26.9,00.0,37.0,30.2,25.3,0003.3,0073.46,0057.39,0055.18
2023-05-19 07:36:00,,0835.9,4.98,0.00,28.6,26.8,00.0,37.0,30.2,25.3,0003.3,0074.79,0058.49,0056.34
2023-05-19 07:37:00,,0835.9,5.00,0.00,28.6,26.8,00.0,37.0,30.2,25.5,0003.3,0075.47,0059.03,0056.85
2023-05-19 07:38:00,,0835.9,5.00,0.00,28.6,26.8,00.0,37.0,30.2,25.5,0003.3,0075.62,0059.23,0057.08
2023-05-19 07:39:00,,0835.9,5.01,0.00,28.6,26.8,00.0,37.0,30.2,25.5,0003.3,0075.37,0059.00,0056.89
2023-05-19 07:40:00,,0835.9,5.00,0.00,28.6,26.8,00.0,37.0,30.2,25.7,0003.3,0075.38,0058.71,0056.58
2023-05-19 07:41:00,,0835.9,4.99,0.00,28.6,26.8,00.0,37.0,30.2,25.7,0003.3,0075.08,0058.47,0056.33
2023-05-19 07:42:00,,0835.9,4.99,0.00,28.6,26.8,00.0,37.0,30.2,25.6,0003.2,0075.13,0058.36,0056.15
2023-05-19 07:43:00,,0835.9,5.00,0.00,28.6,26.8,00.0,37.0,30.1,25.7,0003.2,0074.97,0058.15,0055.94
2023-05-19 07:44:00,,0835.9,5.00,0.00,28.6,26.8,00.0,37.0,30.1,25.5,0003.1,0074.53,0057.82,0055.59
2023-05-19 07:45:00,,0835.9,5.01,0.00,28.6,26.8,00.0,37.0,30.1,25.5,0003.2,0073.96,0057.47,0055.30
2023-05-19 07:46:00,,0835.9,4.98,0.00,28.6,26.8,00.0,37.0,30.1,25.4,0003.3,0073.71,0057.28,0055.12
2023-05-19 07:47:00,,0835.9,5.00,0.00,28.6,26.8,00.0,36.9,30.1,25.2,0003.3,0073.61,0057.20,0055.01
2023-05-19 07:48:00,,0835.8,5.00,0.00,28.6,26.8,00.0,36.9,30.1,25.2,0003.2,0073.98,0057.30,0055.08
2023-05-19 07:49:00,,0835.8,5.00,0.00,28.6,26.8,00.0,36.9,30.1,25.1,0003.2,0074.39,0057.58,0055.33
2023-05-19 07:50:00,,0835.8,5.00,0.00,28.6,26.8,00.0,36.9,30.1,24.9,0003.3,0074.74,0057.92,0055.67
2023-05-19 07:51:00,,0835.8,5.01,0.00,28.6,26.8,00.0,36.9,30.1,24.9,0003.3,0074.75,0058.21,0055.95
2023-05-19 07:52:00,,0835.7,5.00,0.00,28.6,26.8,00.0,36.9,30.1,25.0,0003.3,0074.99,0058.48,0056.21
2023-05-19 07:53:00,,0835.7,5.00,0.00,28.6,26.8,00.0,36.9,30.1,25.1,0003.4,0075.31,0058.82,0056.56
2023-05-19 07:54:00,,0835.6,5.00,0.00,28.6,26.8,00.0,36.9,30.1,25.0,0003.5,0075.73,0059.24,0056.97
2023-05-19 07:55:00,,0835.6,5.00,0.00,28.5,26.7,00.0,36.9,30.1,24.9,0003.5,0075.98,0059.51,0057.31
2023-05-19 07:56:00,,0835.6,4.99,0.00,28.5,26.7,00.0,36.9,30.1,24.7,0003.4,0076.34,0059.84,0057.64
2023-05-19 07:57:00,,0835.6,5.00,0.00,28.5,26.7,00.0,36.9,30.0,24.7,0003.5,0076.74,0060.27,0058.08
2023-05-19 07:58:00,,0835.6,4.99,0.00,28.5,26.7,00.0,36.9,30.0,24.8,0003.5,0077.21,0060.70,0058.50
2023-05-19 07:59:00,,0835.6,5.00,0.00,28.5,26.7,00.0,36.9,30.0,24.9,0003.5,0077.60,0061.23,0059.01
